SWA3912 KMCO-KTYS

Flight info

Callsign SWA3912
Flight time 1h 15m
Altitude 36000
Route JEEMY4 PAINN SHRKS Q77 TEUFL/N0452F350 Q77 WIGVO/N0450F360 ODF HIGGI
Aircraft B737/M-SDE2E3FGHIRWXY/LB1

Departure

Time 2026-04-25 15:40
Airport Orlando International Airport (KMCO)

Arrival

Time 2026-04-25 16:56
Airport McGhee Tyson Airport (KTYS)
Time Latitude Longitude Altitude Speed Heading
2026-04-25 15:07 28.43619 -81.30193 93 ft 0 kts 158°
2026-04-25 15:31 28.43639 -81.30203 96 ft 4 kts 155°
2026-04-25 15:31 28.43663 -81.30216 93 ft 4 kts 148°
2026-04-25 15:31 28.43684 -81.30235 97 ft 4 kts 121°
2026-04-25 15:31 28.43687 -81.30254 93 ft 0 kts 60°
2026-04-25 15:33 28.43699 -81.30250 96 ft 3 kts
2026-04-25 15:34 28.43722 -81.30256 93 ft 7 kts 355°
2026-04-25 15:34 28.43766 -81.30256 93 ft 0 kts
2026-04-25 15:34 28.43768 -81.30256 93 ft 2 kts
2026-04-25 15:35 28.43903 -81.30276 100 ft 12 kts 304°
2026-04-25 15:35 28.43913 -81.30382 99 ft 16 kts 272°
2026-04-25 15:35 28.43920 -81.30514 105 ft 19 kts 275°
2026-04-25 15:36 28.43942 -81.30844 105 ft 23 kts 273°
2026-04-25 15:36 28.43942 -81.31030 106 ft 23 kts 269°
2026-04-25 15:36 28.43935 -81.31209 107 ft 22 kts 267°
2026-04-25 15:37 28.43926 -81.31385 103 ft 23 kts 267°
2026-04-25 15:37 28.43924 -81.31563 106 ft 22 kts 269°
2026-04-25 15:37 28.43922 -81.31740 103 ft 23 kts 269°
2026-04-25 15:37 28.43993 -81.31878 98 ft 22 kts 340°
2026-04-25 15:38 28.44145 -81.31901 97 ft 22 kts 359°
2026-04-25 15:38 28.44295 -81.31903 97 ft 21 kts 359°
2026-04-25 15:38 28.44440 -81.31905 97 ft 21 kts 359°
2026-04-25 15:38 28.44581 -81.31906 97 ft 20 kts 359°
2026-04-25 15:39 28.44718 -81.31908 97 ft 19 kts 359°
2026-04-25 15:39 28.44824 -81.31963 95 ft 16 kts 278°
2026-04-25 15:39 28.44824 -81.32081 96 ft 15 kts 270°
2026-04-25 15:39 28.44818 -81.32196 96 ft 15 kts 246°
2026-04-25 15:40 28.44704 -81.32230 97 ft 32 kts 179°
2026-04-25 15:40 28.44424 -81.32227 100 ft 89 kts 179°
2026-04-25 15:40 28.43161 -81.32218 260 ft 166 kts 180°
2026-04-25 15:40 28.41951 -81.32217 993 ft 188 kts 180°
2026-04-25 15:41 28.40623 -81.32185 1863 ft 200 kts 179°
2026-04-25 15:41 28.39155 -81.32483 2200 ft 230 kts 207°
2026-04-25 15:41 28.37723 -81.33372 3039 ft 238 kts 208°
2026-04-25 15:41 28.36218 -81.34269 3728 ft 259 kts 207°
2026-04-25 15:42 28.34617 -81.35282 4678 ft 268 kts 218°
2026-04-25 15:42 28.33323 -81.36812 5815 ft 270 kts 229°
2026-04-25 15:42 28.32105 -81.38451 6829 ft 275 kts 230°
2026-04-25 15:42 28.31079 -81.40289 7778 ft 281 kts 253°
2026-04-25 15:43 28.30991 -81.42490 8758 ft 283 kts 282°
2026-04-25 15:43 28.31784 -81.44528 9733 ft 286 kts 308°
2026-04-25 15:43 28.33305 -81.45986 10645 ft 293 kts 332°
2026-04-25 15:43 28.35341 -81.46701 10970 ft 322 kts 348°
2026-04-25 15:44 28.37652 -81.47081 11177 ft 349 kts 352°
2026-04-25 15:44 28.40152 -81.47381 11372 ft 373 kts 353°
2026-04-25 15:44 28.42805 -81.47670 11706 ft 389 kts 353°
2026-04-25 15:44 28.45490 -81.47967 12360 ft 394 kts 353°
2026-04-25 15:45 28.48222 -81.48282 13091 ft 396 kts 352°
2026-04-25 15:45 28.50979 -81.48613 13753 ft 400 kts 352°
2026-04-25 15:45 28.53764 -81.48959 14354 ft 404 kts 352°
2026-04-25 15:45 28.55626 -81.49196 14751 ft 407 kts 352°
2026-04-25 15:46 28.59411 -81.49683 15574 ft 411 kts 352°
2026-04-25 15:46 28.62262 -81.50053 16141 ft 414 kts 351°
2026-04-25 15:46 28.65139 -81.50428 16700 ft 417 kts 351°
2026-04-25 15:46 28.68038 -81.50806 17231 ft 420 kts 351°
2026-04-25 15:47 28.70953 -81.51188 17743 ft 424 kts 351°
2026-04-25 15:47 28.73856 -81.51569 18215 ft 427 kts 351°
2026-04-25 15:47 28.76819 -81.51954 18685 ft 429 kts 351°
2026-04-25 15:47 28.79796 -81.52340 19171 ft 431 kts 351°
2026-04-25 15:48 28.82793 -81.52725 19582 ft 435 kts 351°
2026-04-25 15:48 28.85813 -81.53115 20002 ft 437 kts 351°
2026-04-25 15:48 28.88848 -81.53508 20427 ft 440 kts 351°
2026-04-25 15:48 28.91896 -81.53905 20822 ft 442 kts 351°
2026-04-25 15:49 28.94969 -81.54307 21184 ft 445 kts 351°
2026-04-25 15:49 28.98054 -81.54711 21546 ft 447 kts 351°
2026-04-25 15:49 29.01158 -81.55119 21897 ft 450 kts 351°
2026-04-25 15:49 29.04280 -81.55529 22221 ft 452 kts 352°
2026-04-25 15:50 29.07370 -81.55936 22524 ft 454 kts 352°
2026-04-25 15:50 29.10518 -81.56351 22822 ft 456 kts 352°
2026-04-25 15:50 29.13685 -81.56768 23110 ft 459 kts 352°
2026-04-25 15:50 29.16860 -81.57186 23362 ft 461 kts 352°
2026-04-25 15:51 29.20053 -81.57607 23633 ft 462 kts 352°
2026-04-25 15:51 29.22221 -81.57894 23815 ft 463 kts 352°
2026-04-25 15:51 29.26476 -81.58456 24098 ft 466 kts 352°
2026-04-25 15:51 29.29707 -81.58883 24301 ft 468 kts 352°
2026-04-25 15:52 29.32944 -81.59310 24540 ft 469 kts 352°
2026-04-25 15:52 29.36190 -81.59739 24787 ft 470 kts 352°
2026-04-25 15:52 29.39443 -81.60169 25019 ft 471 kts 352°
2026-04-25 15:52 29.42701 -81.60601 25248 ft 472 kts 352°
2026-04-25 15:53 29.45976 -81.61035 25400 ft 475 kts 352°
2026-04-25 15:53 29.49263 -81.61471 25597 ft 475 kts 352°
2026-04-25 15:53 29.52552 -81.61907 25816 ft 476 kts 352°
2026-04-25 15:53 29.55800 -81.62338 26029 ft 476 kts 353°
2026-04-25 15:54 29.59082 -81.62774 26299 ft 474 kts 353°
2026-04-25 15:54 29.62362 -81.63210 26596 ft 473 kts 353°
2026-04-25 15:54 29.65624 -81.63643 26908 ft 471 kts 353°
2026-04-25 15:54 29.68875 -81.64076 27257 ft 469 kts 353°
2026-04-25 15:55 29.72117 -81.64508 27579 ft 469 kts 353°
2026-04-25 15:55 29.75350 -81.64940 27910 ft 467 kts 353°
2026-04-25 15:55 29.78571 -81.65370 28279 ft 466 kts 353°
2026-04-25 15:55 29.81785 -81.65799 28633 ft 464 kts 353°
2026-04-25 15:56 29.84990 -81.66227 29016 ft 462 kts 353°
2026-04-25 15:56 29.88182 -81.66654 29425 ft 460 kts 353°
2026-04-25 15:56 29.91355 -81.67078 29829 ft 459 kts 353°
2026-04-25 15:56 29.94525 -81.67502 30231 ft 457 kts 354°
2026-04-25 15:57 29.97681 -81.67924 30649 ft 456 kts 353°
2026-04-25 15:57 30.00829 -81.68347 30993 ft 456 kts 353°
2026-04-25 15:57 30.03980 -81.68769 31296 ft 456 kts 353°
2026-04-25 15:57 30.07134 -81.69192 31643 ft 456 kts 353°
2026-04-25 15:58 30.10279 -81.69614 32023 ft 454 kts 353°
2026-04-25 15:58 30.13421 -81.70036 32385 ft 453 kts 353°
2026-04-25 15:58 30.16557 -81.70457 32701 ft 453 kts 353°
2026-04-25 15:58 30.19651 -81.70874 33007 ft 453 kts 353°
2026-04-25 15:59 30.22784 -81.71296 33334 ft 452 kts 353°
2026-04-25 15:59 30.25906 -81.71717 33643 ft 452 kts 353°
2026-04-25 15:59 30.29031 -81.72139 33922 ft 452 kts 352°
2026-04-25 15:59 30.32157 -81.72564 34193 ft 452 kts 352°
2026-04-25 16:00 30.35273 -81.72984 34483 ft 451 kts 352°
2026-04-25 16:00 30.36325 -81.73126 34591 ft 450 kts 352°
2026-04-25 16:00 30.41505 -81.73823 35060 ft 449 kts 352°
2026-04-25 16:00 30.44605 -81.74241 35314 ft 448 kts 352°
2026-04-25 16:01 30.47707 -81.74662 35566 ft 448 kts 352°
2026-04-25 16:01 30.50800 -81.75080 35804 ft 447 kts 352°
2026-04-25 16:01 30.53863 -81.75496 36034 ft 447 kts 352°
2026-04-25 16:01 30.56951 -81.75915 36274 ft 446 kts 352°
2026-04-25 16:02 30.60038 -81.76333 36493 ft 446 kts 352°
2026-04-25 16:02 30.63122 -81.76769 36685 ft 446 kts 351°
2026-04-25 16:02 30.66191 -81.77316 36999 ft 442 kts 349°
2026-04-25 16:02 30.69204 -81.77920 37382 ft 438 kts 349°
2026-04-25 16:03 30.72196 -81.78543 37662 ft 435 kts 349°
2026-04-25 16:03 30.75174 -81.79167 37902 ft 434 kts 349°
2026-04-25 16:03 30.81085 -81.80384 37950 ft 424 kts 349°
2026-04-25 16:04 30.86842 -81.81548 37950 ft 417 kts 349°
2026-04-25 16:04 30.92546 -81.82695 37965 ft 415 kts 349°
2026-04-25 16:05 30.98227 -81.83835 37969 ft 413 kts 349°
2026-04-25 16:06 31.06676 -81.85536 37969 ft 413 kts 349°
2026-04-25 16:06 31.12345 -81.86679 37963 ft 413 kts 349°
2026-04-25 16:07 31.18029 -81.87825 37969 ft 415 kts 349°
2026-04-25 16:07 31.23736 -81.88979 37969 ft 417 kts 349°
2026-04-25 16:08 31.29461 -81.90138 37972 ft 418 kts 349°
2026-04-25 16:08 31.35214 -81.91301 37985 ft 420 kts 348°
2026-04-25 16:09 31.40978 -81.92470 37978 ft 421 kts 348°
2026-04-25 16:09 31.46714 -81.93635 37982 ft 421 kts 348°
2026-04-25 16:10 31.52490 -81.94810 37977 ft 421 kts 348°
2026-04-25 16:10 31.58267 -81.95986 37983 ft 421 kts 348°
2026-04-25 16:11 31.64033 -81.97162 37977 ft 421 kts 348°
2026-04-25 16:11 31.69797 -81.98341 37963 ft 420 kts 348°
2026-04-25 16:12 31.75560 -81.99517 37962 ft 419 kts 348°
2026-04-25 16:12 31.81311 -82.00693 37961 ft 419 kts 348°
2026-04-25 16:13 31.87057 -82.01817 37950 ft 419 kts 352°
2026-04-25 16:13 31.92848 -82.02092 37950 ft 419 kts 356°
2026-04-25 16:14 31.98679 -82.02240 37948 ft 419 kts 356°
2026-04-25 16:14 32.04505 -82.02412 37947 ft 418 kts 356°
2026-04-25 16:15 32.10323 -82.02607 37947 ft 418 kts 356°
2026-04-25 16:15 32.16142 -82.02808 37944 ft 418 kts 356°
2026-04-25 16:16 32.21968 -82.03011 37948 ft 419 kts 356°
2026-04-25 16:16 32.27792 -82.03212 37943 ft 419 kts 356°
2026-04-25 16:17 32.33625 -82.03415 37945 ft 419 kts 356°
2026-04-25 16:17 32.39467 -82.03616 37948 ft 420 kts 356°
2026-04-25 16:18 32.45277 -82.04165 37937 ft 417 kts 346°
2026-04-25 16:18 32.50704 -82.06457 37954 ft 414 kts 334°
2026-04-25 16:19 32.55889 -82.09343 37947 ft 415 kts 333°
2026-04-25 16:19 32.61113 -82.12261 37941 ft 415 kts 333°
2026-04-25 16:20 32.68132 -82.16141 37942 ft 416 kts 334°
2026-04-25 16:21 32.75984 -82.20466 37935 ft 417 kts 334°
2026-04-25 16:21 32.81250 -82.23365 37933 ft 417 kts 334°
2026-04-25 16:22 32.86522 -82.26273 37934 ft 418 kts 334°
2026-04-25 16:22 32.91792 -82.29185 37933 ft 418 kts 334°
2026-04-25 16:23 32.97063 -82.32102 37936 ft 418 kts 333°
2026-04-25 16:23 33.02330 -82.35020 37934 ft 418 kts 333°
2026-04-25 16:24 33.07601 -82.37942 37934 ft 417 kts 333°
2026-04-25 16:24 33.12859 -82.40863 37934 ft 417 kts 333°
2026-04-25 16:25 33.18122 -82.43795 37947 ft 417 kts 333°
2026-04-25 16:25 33.23384 -82.46725 37952 ft 417 kts 333°
2026-04-25 16:26 33.28615 -82.49639 37949 ft 418 kts 333°
2026-04-25 16:26 33.33886 -82.52582 37962 ft 418 kts 333°
2026-04-25 16:27 33.39156 -82.55528 37966 ft 418 kts 333°
2026-04-25 16:27 33.44437 -82.58485 37964 ft 419 kts 333°
2026-04-25 16:28 33.49722 -82.61448 37954 ft 419 kts 333°
2026-04-25 16:28 33.55012 -82.64417 37968 ft 420 kts 333°
2026-04-25 16:29 33.60314 -82.67399 37965 ft 420 kts 333°
2026-04-25 16:29 33.65578 -82.70364 37948 ft 421 kts 333°
2026-04-25 16:30 33.70878 -82.73352 37941 ft 421 kts 333°
2026-04-25 16:30 33.76179 -82.76346 37932 ft 421 kts 333°
2026-04-25 16:31 33.81472 -82.79339 37924 ft 420 kts 333°
2026-04-25 16:31 33.86760 -82.82330 37923 ft 419 kts 333°
2026-04-25 16:32 33.92035 -82.85319 37927 ft 419 kts 333°
2026-04-25 16:32 33.97297 -82.88304 37924 ft 418 kts 333°
2026-04-25 16:33 34.02527 -82.91278 37924 ft 417 kts 332°
2026-04-25 16:33 34.07808 -82.94285 37932 ft 416 kts 332°
2026-04-25 16:34 34.13015 -82.97252 37923 ft 417 kts 332°
2026-04-25 16:34 34.18262 -83.00248 37926 ft 417 kts 332°
2026-04-25 16:35 34.23510 -83.03248 37924 ft 417 kts 332°
2026-04-25 16:35 34.28758 -83.06248 37936 ft 417 kts 332°
2026-04-25 16:36 34.34007 -83.09255 37938 ft 417 kts 332°
2026-04-25 16:36 34.39258 -83.12271 37939 ft 418 kts 332°
2026-04-25 16:37 34.44507 -83.15290 37930 ft 417 kts 332°
2026-04-25 16:37 34.49720 -83.18290 37936 ft 417 kts 331°
2026-04-25 16:38 34.55009 -83.21339 37948 ft 422 kts 331°
2026-04-25 16:38 34.60338 -83.24417 37950 ft 432 kts 331°
2026-04-25 16:39 34.65797 -83.27574 37365 ft 437 kts 331°
2026-04-25 16:39 34.68538 -83.29157 36789 ft 434 kts 331°
2026-04-25 16:39 34.71263 -83.30763 36082 ft 433 kts 329°
2026-04-25 16:39 34.73945 -83.32435 35315 ft 434 kts 329°
2026-04-25 16:40 34.76625 -83.34150 34522 ft 436 kts 328°
2026-04-25 16:40 34.79315 -83.35885 33689 ft 439 kts 328°
2026-04-25 16:40 34.82027 -83.37632 32823 ft 443 kts 328°
2026-04-25 16:40 34.84776 -83.39399 31919 ft 451 kts 328°
2026-04-25 16:41 34.87582 -83.41197 30959 ft 460 kts 329°
2026-04-25 16:41 34.89468 -83.42402 30286 ft 463 kts 329°
2026-04-25 16:41 34.96185 -83.46684 27647 ft 469 kts 329°
2026-04-25 16:42 34.99084 -83.48532 26407 ft 472 kts 329°
2026-04-25 16:42 35.01998 -83.50392 25411 ft 470 kts 329°
2026-04-25 16:42 35.04878 -83.52230 24491 ft 466 kts 329°
2026-04-25 16:42 35.07744 -83.54062 23590 ft 462 kts 329°
2026-04-25 16:43 35.10550 -83.55858 22689 ft 460 kts 329°
2026-04-25 16:43 35.13364 -83.57661 21781 ft 454 kts 329°
2026-04-25 16:43 35.16143 -83.59444 20873 ft 448 kts 329°
2026-04-25 16:43 35.18891 -83.61209 19968 ft 443 kts 329°
2026-04-25 16:44 35.21604 -83.62953 19065 ft 438 kts 329°
2026-04-25 16:44 35.24293 -83.64682 18163 ft 433 kts 329°
2026-04-25 16:44 35.26944 -83.66389 17265 ft 428 kts 329°
2026-04-25 16:44 35.29565 -83.68078 16368 ft 423 kts 330°
2026-04-25 16:45 35.32154 -83.69747 15527 ft 417 kts 330°
2026-04-25 16:45 35.34712 -83.71398 14637 ft 413 kts 330°
2026-04-25 16:45 35.37235 -83.73025 13744 ft 409 kts 330°
2026-04-25 16:45 35.39727 -83.74635 12910 ft 403 kts 330°
2026-04-25 16:46 35.42202 -83.76201 12105 ft 397 kts 333°
2026-04-25 16:46 35.44813 -83.77321 11248 ft 395 kts 344°
2026-04-25 16:46 35.47435 -83.77851 10923 ft 368 kts 353°
2026-04-25 16:46 35.48260 -83.77905 10813 ft 362 kts 357°
2026-04-25 16:47 35.52282 -83.77919 10536 ft 335 kts 358°
2026-04-25 16:47 35.54600 -83.77912 10404 ft 333 kts 358°
2026-04-25 16:47 35.56891 -83.77909 10264 ft 323 kts 358°
2026-04-25 16:47 35.59094 -83.77910 10115 ft 310 kts 358°
2026-04-25 16:48 35.61208 -83.77915 10006 ft 298 kts 358°
2026-04-25 16:48 35.63252 -83.77923 9649 ft 295 kts 358°
2026-04-25 16:48 35.65275 -83.77935 9270 ft 285 kts 358°
2026-04-25 16:48 35.67241 -83.77946 8860 ft 279 kts 358°
2026-04-25 16:49 35.69172 -83.77958 8514 ft 279 kts 358°
2026-04-25 16:49 35.71125 -83.77969 8161 ft 281 kts 358°
2026-04-25 16:49 35.73072 -83.77981 7794 ft 280 kts 358°
2026-04-25 16:49 35.75015 -83.77993 7443 ft 279 kts 358°
2026-04-25 16:50 35.76949 -83.78005 7075 ft 277 kts 359°
2026-04-25 16:50 35.78878 -83.78017 6720 ft 277 kts 358°
2026-04-25 16:50 35.80772 -83.78030 6364 ft 275 kts 358°
2026-04-25 16:50 35.82679 -83.78043 6020 ft 273 kts 358°
2026-04-25 16:51 35.84576 -83.78055 5665 ft 272 kts 358°
2026-04-25 16:51 35.86463 -83.78065 5312 ft 270 kts 359°
2026-04-25 16:51 35.88328 -83.78075 5101 ft 264 kts 359°
2026-04-25 16:51 35.88943 -83.78099 4993 ft 259 kts 353°
2026-04-25 16:52 35.91229 -83.80013 4438 ft 238 kts 297°
2026-04-25 16:52 35.91709 -83.81871 4165 ft 222 kts 275°
2026-04-25 16:52 35.91632 -83.83720 3890 ft 211 kts 257°
2026-04-25 16:52 35.91097 -83.85349 3633 ft 202 kts 239°
2026-04-25 16:53 35.89547 -83.88131 3157 ft 192 kts 235°
2026-04-25 16:53 35.88782 -83.89469 2911 ft 190 kts 235°
2026-04-25 16:53 35.87978 -83.90716 2671 ft 181 kts 226°
2026-04-25 16:54 35.87120 -83.91766 2475 ft 166 kts 224°
2026-04-25 16:54 35.86329 -83.92718 2263 ft 156 kts 224°
2026-04-25 16:54 35.85576 -83.93627 2100 ft 148 kts 224°
2026-04-25 16:54 35.84856 -83.94498 1863 ft 144 kts 224°
2026-04-25 16:55 35.84151 -83.95354 1667 ft 141 kts 224°
2026-04-25 16:55 35.83442 -83.96186 1442 ft 142 kts 223°
2026-04-25 16:55 35.82733 -83.97026 1242 ft 140 kts 226°
2026-04-25 16:55 35.82063 -83.97893 1067 ft 139 kts 224°
2026-04-25 16:56 35.81392 -83.98709 959 ft 127 kts 225°
2026-04-25 16:56 35.80851 -83.99370 959 ft 88 kts 224°
2026-04-25 16:56 35.80601 -83.99678 958 ft 26 kts 224°
2026-04-25 16:56 35.80476 -83.99829 960 ft 25 kts 224°
2026-04-25 16:57 35.80355 -83.99974 960 ft 24 kts 224°
2026-04-25 16:57 35.80317 -84.00020 961 ft 24 kts 224°
2026-04-25 16:57 35.80122 -84.00260 959 ft 25 kts 225°
2026-04-25 16:57 35.80016 -84.00231 965 ft 22 kts 82°
2026-04-25 16:58 35.80109 -84.00088 965 ft 21 kts 44°
2026-04-25 16:58 35.80212 -83.99960 964 ft 21 kts 45°
2026-04-25 16:58 35.80314 -83.99836 964 ft 21 kts 45°
2026-04-25 16:58 35.80421 -83.99708 964 ft 22 kts 44°
2026-04-25 16:59 35.80543 -83.99581 964 ft 24 kts 42°
2026-04-25 16:59 35.80663 -83.99435 965 ft 25 kts 44°
2026-04-25 16:59 35.80764 -83.99310 963 ft 15 kts 47°
2026-04-25 16:59 35.80764 -83.99224 963 ft 10 kts 96°
2026-04-25 17:00 35.80729 -83.99153 967 ft 9 kts 134°
2026-04-25 17:00 35.80715 -83.99135 967 ft 0 kts 135°